Regional Weather Roundup
Issued by NWS Huntsville, AL

Home | Current Version | Previous Version | Text Only | Print | Product List | Glossary On
Versions: 1 2 3 4 5 6 7 8 9 10 11 12 13 14 15 16 17 18 19 20 21 22 23 24 25 26 27 28 29 30 31 32 33 34 35 36 37 38 39 40 41 42 43 44 45 46 47 48 49 50
000
ASUS44 KHUN 301810
RWRHUN

WEATHER ROUNDUP FOR THE TENNESSEE VALLEY
NATIONAL WEATHER SERVICE HUNTSVILLE AL
100 PM CDT SAT AUG 30 2014

ALZ001>004-301900-
NORTHWEST ALABAMA

CITY           SKY/WX    TMP DP  RH WIND       PRES   REMARKS
SHOALS AIRPORT CLOUDY    88  71  57 W5        30.07F HX  94
6HR MIN TEMP:  73; 6HR MAX TEMP:  88; 6HR PCP: TRACE;

$$

ALZ005>007-016-301900-
NORTH CENTRAL ALABAMA

CITY           SKY/WX    TMP DP  RH WIND       PRES   REMARKS
DECATUR AP     CLOUDY    87  71  58 SW6       30.08F HX  93
6HR MIN TEMP:  73; 6HR MAX TEMP:  90; 6HR PCP: TRACE;

HUNTSVILLE AP  PTSUNNY   91  71  51 VRB7      30.07F HX  97
6HR MIN TEMP:  75; 6HR MAX TEMP:  91; 6HR PCP: TRACE;

HUN NWS/UAH      N/A     88  67  51 SW6         N/A  HX  91
MERIDIANVILLE  PTSUNNY   88  64  45 SE7       30.09F
VINEMONT AP    FAIR      87  71  58 S8        30.11F HX  93
$$

ALZ008>010-301900-
NORTHEAST ALABAMA

CITY           SKY/WX    TMP DP  RH WIND       PRES   REMARKS
ALBERTVILLE    CLOUDY    77  77 100 NE5       30.09F
FORT PAYNE     CLOUDY    84  68  58 SE6       30.10F
SCOTTSBORO AP  MOSUNNY   84  72  65 S3        30.10F
SCOTTSBORO HCN   N/A     84 N/A N/A MISG        N/A
VALLEY HEAD      N/A     84 N/A N/A MISG        N/A
$$

TNZ076-096-097-301900-
SOUTHEASTERN MIDDLE TENNESSEE

CITY           SKY/WX    TMP DP  RH WIND       PRES   REMARKS
FAYETTEVILLE   SUNNY     84  70  61 S5        30.10F
TULLAHOMA      SUNNY     84  70  61 VRB6      30.12F
WINCHESTER     SUNNY     84  72  65 VRB5      30.11F
$$

...SURROUNDING SITES...

CITY           SKY/WX    TMP DP  RH WIND       PRES   REMARKS
ATLANTA        PTSUNNY   88  72  58 SE9       30.14F HX  94
ANNISTON       MOSUNNY   89  71  55 SE9       30.10F HX  95
BIRMINGHAM     LGT RAIN  82  74  76 W13       30.10F
CHATTANOOGA    PTSUNNY   87  70  56 VRB6      30.12F HX  92
CORINTH        PTSUNNY   81  72  74 VRB3      30.06F
DALTON         MOSUNNY   86  70  58 SE8       30.13F HX  90
GADSDEN        PTSUNNY   90  70  51 SE7       30.07F HX  95
GOLDEN TRNGL   SHOWER    90  72  55 SE5       30.04F HX  96
HALEYVILLE     PTSUNNY   86  71  60 S6        30.11F HX  91
JACKSON TN     LGT RAIN  78  72  81 CALM      30.06F
LEWISBURG      FAIR      86  69  56 CALM      30.09F HX  90
MEMPHIS        LGT RAIN  79  72  79 SW3       30.05S
NASHVILLE      CLOUDY    81  70  69 W5        30.10S
ROME           MOSUNNY   89  71  55 S9G16     30.10F HX  95
SAVANNAH       PTSUNNY   79  79 100 S3        30.08S
TUPELO         CLOUDY    84  71  65 SW3       30.05F
TUSCALOOSA     PTSUNNY   91  70  49 S8        30.06F HX  96
$$

...GULF COAST WEATHER...

CITY           SKY/WX    TMP DP  RH WIND       PRES   REMARKS
GULFPORT       CLOUDY    87  77  72 SE17G23   30.04F HX  99
PASCAGOULA     MOSUNNY   90  75  61 SE17G24   30.05F HX 100
MOBILE         PTSUNNY   88  75  65 S14G24    30.06F HX  97
GULF SHORES    MOCLDY    89  78  70 SE14G20   30.07F HX 103
PENSACOLA      PTSUNNY   91  78  65 SE16      30.07F HX 106
DESTIN         MOSUNNY   91  78  65 SE10G18   30.09F HX 106
PANAMA CITY    SUNNY     90  77  67 S13       30.09F HX 103
APPALACHICOLA  MOSUNNY   89  77  67 SE12      30.10F HX 101
$$



USA.gov is the U.S. government's official web portal to all federal, state and local government web resources and services.